Showing default

SNAP-3 JIMI, 40975

Orbit data source: Space-Track

SNAP-3 JIMI, 40975 is a payload satellite owned by SMDC (US) in LEO that was launched on Thu, 08 Oct 2015 UTC via an ATLAS V 401 launch vehicle from the Air Force Western Test Range (AFWTR). Payload-class satellites include a variety of spacecraft equipped with specific instruments for various scientific and technological missions. These include communications satellites like Starlink; space stations such as the ISS; scientific satellites like the Hubble; Earth observation satellites from companies like Planet Labs, Umbra, and HawkEye 360; GPS; miniature CubeSats for education and research; and military/defense satellites.

Loading next visibility...
Identifier
40975, 2015-058M
Orbit
LEO
Last TLE update
17 hours ago
Origin
Manufacturer
Duocomm Miltec
Mission
Operational Defense Communications
Bus & Motor
CUBESAT 3U, Unknown motor
Mass
5.3 kg wet, 5.3 kg dry
Launch date (UTC)
2015-10-08 (10 years ago)
Launch vehicle
ATLAS V 401
Launch site
Air Force Western Test Range (AFWTR)
Object type
Payload
Rocket body
Debris
Shape & HBR
Box + 8 Pan, 0.5 m
Radar Cross Section
0.085 m², Small (<0.1 m²)

Expand to show TLE details & history

TLE from 17 hours ago
0 SNAP-3 JIMI
1 40975U 15058M   25128.52287187  .00005109  00000-0  37363-3 0  9992
2 40975  64.7677  54.3184 0147573 208.2215 151.0848 14.96378630 53558
Epoch: 2025-05-08T12:32Z
Definitive object data (Epoch: 2025-05-08T12:32:56.129Z)
Latitude
-0.00008°
Longitude
-0.50766°
Altitude
670.323 km
Speed
7.473 km/s
True Right ascension
03h 37m 16s
True Declination
0° 00' 00"
Sunlit
Object was in daylight at TLE epoch
Visualization TLE readout
Latitude
31.91129°
Longitude
160.34418°
Altitude
534.441 km
Speed
7.624 km/s
Apparent Right ascension
17h 29m 24s
Apparent Declination
-14° 43' 44"
Sunlit
Object is in full shadow
Visualization observer readout
Local Sidereal Time
13:23:07
Azimuth
119.97° SE
Elevation
10.953°
Doppler factor
1
Orbital elements
Apogee altitude
679.295 km
Perigee altitude
474.027 km
Semi-major axis
6,954.798 km
Eccentricity
0.0147573
Inclination
64.7677°
RAAN
54.3184°
Arg. of periapsis
208.2215°
True anomaly
151.88943°
Mean anomaly
151.0848°
Eccentric anomaly
151.4884°
Mean motion
3.74211 °/min
BSTAR
0.00037363
Orbital period
96.2 mins
Loading maneuver chart data...
Loading SW <> Apogee altitude chart data...
Loading historical data...
Loading historical data...
Loading historical data...
Loading historical data...
Loading historical data...
Loading historical data...
Loading historical data...

SNAP-3 JIMI Visibility forecast

Observer location: undefined°, undefined°

Span
Click to sort rows by Start time (UTC) header in descending order
Start Az.
Max El. time (UTC)
Max El. Az.
Max El.
End time (UTC)
End Az.
7 mins2025-05-09 20:47:29.462Z219.649° SW2025-05-09 20:50:29.462Z326.117° NNW44.008°2025-05-09 20:54:29.462Z28.194° NE
|